| time (UTC) | temp F | wind direction | speed MPH | gust MPH | rain 1hr in | rain 24hr in | rain mn in | humidity % | barometer mb |
| 20260901092138 | 72 | 150 | 1.0 | 2.0 | 0.00 | 0.00 | 0.00 | 96 | 1018.4 |
| 20260901091138 | 72 | 185 | 0.0 | 2.0 | 0.00 | 0.00 | 0.00 | 96 | 1018.7 |
| 20260901090139 | 72 | 138 | 0.0 | 1.0 | 0.00 | 0.00 | 0.00 | 96 | 1018.7 |
| 20260901085137 | 72 | 164 | 0.0 | 2.0 | 0.00 | 0.00 | 0.00 | 96 | 1018.7 |
| 20260901084136 | 72 | 137 | 1.0 | 2.0 | 0.00 | 0.00 | 0.00 | 96 | 1018.4 |
| 20260901083133 | 73 | 142 | 0.0 | 2.0 | 0.00 | 0.00 | 0.00 | 96 | 1018.7 |
| 20260901082131 | 73 | 132 | 0.0 | 3.0 | 0.00 | 0.00 | 0.00 | 96 | 1018.7 |
| 20260901081132 | 73 | 198 | 2.0 | 2.0 | 0.00 | 0.00 | 0.00 | 96 | 1018.4 |
| 20260901080130 | 73 | 167 | 1.0 | 3.0 | 0.00 | 0.00 | 0.00 | 96 | 1018.7 |
| 20260901075129 | 73 | 205 | 0.0 | 2.0 | 0.00 | 0.00 | 0.00 | 96 | 1018.7 |
| 20260901074131 | 73 | 138 | 0.0 | 3.0 | 0.00 | 0.00 | 0.00 | 96 | 1018.4 |
| 20260901073128 | 72 | 181 | 0.0 | 3.0 | 0.00 | 0.00 | 0.00 | 95 | 1018.7 |
| 20260901072142 | 72 | 139 | 0.0 | 2.0 | 0.00 | 0.00 | 0.00 | 95 | 1018.7 |
| 20260901071127 | 72 | 174 | 0.0 | 2.0 | 0.00 | 0.00 | 0.00 | 95 | 1019.0 |
| 20260901070134 | 72 | 169 | 0.0 | 2.0 | 0.00 | 0.00 | 0.00 | 95 | 1019.0 |
| 20260901065127 | 72 | 160 | 0.0 | 2.0 | 0.00 | 0.00 | 0.00 | 95 | 1019.0 |
| 20260901064109 | 72 | 148 | 0.0 | 2.0 | 0.00 | 0.00 | 0.00 | 95 | 1019.0 |
| 20260901063554 | 72 | 142 | 0.0 | 2.0 | 0.00 | 0.00 | 0.00 | 95 | 1019.0 |
| 20260901062611 | 72 | 131 | 0.0 | 2.0 | 0.00 | 0.00 | 0.00 | 95 | 1019.0 |
| 20260901061109 | 72 | 156 | 0.0 | 2.0 | 0.00 | 0.00 | 0.00 | 95 | 1019.4 |
| 20260901060623 | 72 | 134 | 2.0 | 2.0 | 0.00 | 0.00 | 0.00 | 95 | 1019.0 |
| 20260901055108 | 72 | 129 | 0.0 | 1.0 | 0.00 | 0.00 | 0.00 | 95 | 1019.4 |
| 20260901055023 | 72 | 135 | 1.0 | 2.0 | 0.00 | 0.00 | 0.00 | 95 | 1019.7 |
| 20260901053109 | 71 | 172 | 1.0 | 2.0 | 0.00 | 0.00 | 0.00 | 95 | 1019.4 |
| 20260901052108 | 71 | 150 | 1.0 | 2.0 | 0.00 | 0.00 | 0.00 | 94 | 1019.4 |
| 20260901051552 | 71 | 157 | 1.0 | 2.0 | 0.00 | 0.00 | 0.00 | 94 | 1020.0 |
| 20260901050523 | 71 | 152 | 1.0 | 2.0 | 0.00 | 0.00 | 0.00 | 94 | 1020.0 |
| 20260901050319 | 71 | 145 | 0.0 | 2.0 | 0.00 | 0.00 | 0.00 | 94 | 1020.0 |
| 20260901044110 | 71 | 144 | 2.0 | 2.0 | 0.00 | 0.00 | 0.00 | 94 | 1020.0 |
| 20260901043122 | 71 | 157 | 1.0 | 1.0 | 0.00 | 0.00 | 0.00 | 93 | 1020.4 |
| 20260901042121 | 71 | 159 | 1.0 | 1.0 | 0.00 | 0.00 | 0.00 | 93 | 1020.0 |
| 20260901041125 | 71 | 148 | 1.0 | 1.0 | 0.00 | 0.00 | 0.00 | 93 | 1020.4 |
| 20260901040128 | 71 | 147 | 0.0 | 1.0 | 0.00 | 0.00 | 0.00 | 93 | 1020.0 |
| 20260901035121 | 71 | 156 | 1.0 | 1.0 | 0.00 | 0.00 | 0.00 | 93 | 1020.0 |
| 20260901034545 | 71 | 147 | 1.0 | 2.0 | 0.00 | 0.00 | 0.00 | 93 | 1020.0 |
| 20260901033106 | 71 | 155 | 1.0 | 2.0 | 0.00 | 0.00 | 0.00 | 93 | 1020.4 |
| 20260901032115 | 71 | 150 | 0.0 | 1.0 | 0.00 | 0.00 | 0.00 | 92 | 1020.0 |
| 20260901031110 | 71 | 166 | 0.0 | 2.0 | 0.00 | 0.00 | 0.00 | 92 | 1020.4 |
| 20260901030107 | 71 | 137 | 0.0 | 2.0 | 0.00 | 0.00 | 0.00 | 92 | 1020.0 |
| 20260901025106 | 72 | 180 | 0.0 | 2.0 | 0.00 | 0.00 | 0.00 | 92 | 1020.0 |
| 20260901024108 | 71 | 167 | 0.0 | 2.0 | 0.00 | 0.00 | 0.00 | 91 | 1020.0 |
| 20260901023108 | 71 | 180 | 0.0 | 2.0 | 0.00 | 0.00 | 0.00 | 91 | 1020.4 |
| 20260901022112 | 71 | 135 | 1.0 | 2.0 | 0.00 | 0.00 | 0.00 | 90 | 1020.4 |
| 20260901021109 | 71 | 171 | 0.0 | 1.0 | 0.00 | 0.00 | 0.00 | 90 | 1020.4 |
| 20260901020108 | 72 | 144 | 2.0 | 2.0 | 0.00 | 0.00 | 0.00 | 90 | 1020.4 |
| 20260901015108 | 72 | 161 | 0.0 | 2.0 | 0.00 | 0.00 | 0.00 | 90 | 1020.4 |
| 20260901014109 | 72 | 129 | 0.0 | 2.0 | 0.00 | 0.00 | 0.00 | 90 | 1020.4 |
| 20260901013556 | 72 | 133 | 2.0 | 2.0 | 0.00 | 0.00 | 0.00 | 90 | 1020.0 |
| 20260901012113 | 72 | 150 | 1.0 | 2.0 | 0.00 | 0.00 | 0.00 | 90 | 1020.4 |
| 20260901011114 | 72 | 144 | 1.0 | 2.0 | 0.00 | 0.00 | 0.00 | 90 | 1020.0 |
| 20260901010117 | 73 | 142 | 2.0 | 2.0 | 0.00 | 0.00 | 0.00 | 90 | 1020.4 |
| 20260901005553 | 72 | 139 | 2.0 | 2.0 | 0.00 | 0.00 | 0.00 | 89 | 1020.0 |
| 20260901004108 | 73 | 141 | 0.0 | 1.0 | 0.00 | 0.00 | 0.00 | 89 | 1020.0 |
| 20260901003615 | 73 | 136 | 1.0 | 1.0 | 0.00 | 0.00 | 0.00 | 89 | 1020.0 |
| 20260901002108 | 73 | 135 | 0.0 | 1.0 | 0.00 | 0.00 | 0.00 | 88 | 1020.0 |
| 20260901001549 | 73 | 143 | 0.0 | 1.0 | 0.00 | 0.00 | 0.00 | 88 | 1019.4 |
| 20260901000114 | 73 | 154 | 0.0 | 1.0 | 0.00 | 0.00 | 0.00 | 87 | 1019.7 |
| 20260831235109 | 73 | 144 | 1.0 | 2.0 | 0.00 | 0.00 | 0.00 | 87 | 1019.7 |
| 20260831234112 | 74 | 150 | 1.0 | 2.0 | 0.00 | 0.00 | 0.00 | 86 | 1020.0 |
| 20260831233114 | 74 | 142 | 2.0 | 2.0 | 0.00 | 0.00 | 0.00 | 86 | 1020.4 |
| 20260831232115 | 74 | 147 | 0.0 | 1.0 | 0.00 | 0.00 | 0.00 | 85 | 1020.4 |
| 20260831231110 | 75 | 151 | 0.0 | 1.0 | 0.00 | 0.00 | 0.00 | 84 | 1020.0 |
| 20260831230609 | 75 | 186 | 0.0 | 1.0 | 0.00 | 0.00 | 0.00 | 83 | 1020.4 |
| 20260831225107 | 76 | 138 | 0.0 | 1.0 | 0.00 | 0.00 | 0.00 | 82 | 1020.4 |
| 20260831224108 | 76 | 158 | 0.0 | 1.0 | 0.00 | 0.00 | 0.00 | 82 | 1020.0 |
| 20260831223107 | 77 | 122 | 0.0 | 1.0 | 0.00 | 0.00 | 0.00 | 82 | 1020.4 |
| 20260831222115 | 76 | 159 | 0.0 | 1.0 | 0.00 | 0.00 | 0.00 | 83 | 1020.4 |
| 20260831221607 | 76 | 135 | 0.0 | 1.0 | 0.00 | 0.00 | 0.00 | 82 | 1020.4 |
| 20260831220109 | 76 | 129 | 0.0 | 0.0 | 0.00 | 0.00 | 0.00 | 81 | 1020.4 |
| 20260831215606 | 77 | 180 | 0.0 | 0.0 | 0.00 | 0.00 | 0.00 | 78 | 1020.7 |
| 20260831214109 | 78 | 150 | 0.0 | 1.0 | 0.00 | 0.00 | 0.00 | 76 | 1021.1 |
| 20260831213115 | 79 | 157 | 0.0 | 1.0 | 0.00 | 0.00 | 0.00 | 74 | 1020.7 |
| 20260831212109 | 81 | 135 | 0.0 | 2.0 | 0.00 | 0.00 | 0.00 | 69 | 1020.7 |
| 20260831211122 | 83 | 206 | 0.0 | 3.0 | 0.00 | 0.00 | 0.00 | 66 | 1020.7 |
| 20260831210109 | 83 | 217 | 2.0 | 3.0 | 0.00 | 0.00 | 0.00 | 66 | 1021.1 |
| 20260831205121 | 84 | 212 | 2.0 | 4.0 | 0.00 | 0.00 | 0.00 | 64 | 1020.7 |
| 20260831204109 | 83 | 144 | 1.0 | 2.0 | 0.00 | 0.00 | 0.00 | 70 | 1020.7 |
| 20260831203121 | 81 | 157 | 0.0 | 3.0 | 0.00 | 0.00 | 0.00 | 67 | 1020.4 |
| 20260831202113 | 83 | 141 | 0.0 | 3.0 | 0.00 | 0.00 | 0.00 | 65 | 1021.1 |
| 20260831201108 | 82 | 216 | 2.0 | 2.0 | 0.00 | 0.00 | 0.00 | 73 | 1021.1 |
| 20260831200122 | 79 | 154 | 0.0 | 2.0 | 0.00 | 0.00 | 0.00 | 73 | 1021.1 |
| 20260831195115 | 81 | 205 | 2.0 | 3.0 | 0.00 | 0.00 | 0.00 | 68 | 1021.1 |
| 20260831194113 | 81 | 204 | 2.0 | 2.0 | 0.00 | 0.00 | 0.00 | 75 | 1021.1 |
| 20260831193107 | 78 | 217 | 0.0 | 2.0 | 0.00 | 0.00 | 0.00 | 77 | 1021.4 |
| 20260831192107 | 78 | 205 | 0.0 | 3.0 | 0.00 | 0.00 | 0.00 | 75 | 1021.4 |
| 20260831191107 | 79 | 236 | 3.0 | 4.0 | 0.00 | 0.00 | 0.00 | 71 | 1021.7 |
| 20260831190121 | 80 | 180 | 1.0 | 3.0 | 0.00 | 0.00 | 0.00 | 73 | 1021.7 |
| 20260831185108 | 80 | 113 | 0.0 | 3.0 | 0.00 | 0.00 | 0.00 | 73 | 1021.7 |
| 20260831184107 | 80 | 166 | 0.0 | 2.0 | 0.00 | 0.00 | 0.00 | 76 | 1021.7 |
| 20260831183106 | 78 | 154 | 0.0 | 3.0 | 0.00 | 0.00 | 0.00 | 77 | 1021.7 |
| 20260831182108 | 78 | 237 | 1.0 | 3.0 | 0.00 | 0.00 | 0.00 | 77 | 1021.4 |
| 20260831181110 | 79 | 147 | 0.0 | 3.0 | 0.00 | 0.00 | 0.00 | 75 | 1021.7 |
| 20260831180122 | 80 | 212 | 0.0 | 4.0 | 0.00 | 0.00 | 0.00 | 76 | 1021.7 |
| 20260831175105 | 80 | 145 | 1.0 | 2.0 | 0.00 | 0.00 | 0.00 | 73 | 1021.7 |
| 20260831174109 | 79 | 207 | 0.0 | 3.0 | 0.00 | 0.00 | 0.00 | 70 | 1021.7 |
| 20260831173105 | 80 | 147 | 0.0 | 4.0 | 0.00 | 0.00 | 0.00 | 71 | 1021.7 |
| 20260831172104 | 81 | 241 | 3.0 | 4.0 | 0.00 | 0.00 | 0.00 | 69 | 1021.7 |
| 20260831171551 | 80 | 135 | 0.0 | 3.0 | 0.00 | 0.00 | 0.00 | 75 | 1022.1 |
| 20260831170119 | 81 | 243 | 0.0 | 3.0 | 0.00 | 0.00 | 0.00 | 72 | 1021.7 |
| 20260831165105 | 81 | 205 | 0.0 | 2.0 | 0.00 | 0.00 | 0.00 | 72 | 1022.1 |
| 20260831164106 | 80 | 208 | 2.0 | 4.0 | 0.00 | 0.00 | 0.00 | 75 | 1022.1 |
| 20260831163111 | 80 | 207 | 2.0 | 2.0 | 0.00 | 0.00 | 0.00 | 82 | 1021.7 |
| 20260831162113 | 79 | 156 | 0.0 | 4.0 | 0.00 | 0.00 | 0.00 | 84 | 1022.1 |
| 20260831161108 | 79 | 133 | 0.0 | 2.0 | 0.00 | 0.00 | 0.00 | 83 | 1022.1 |
| 20260831160117 | 78 | 202 | 2.0 | 4.0 | 0.00 | 0.00 | 0.00 | 76 | 1022.1 |
| 20260831155106 | 77 | 138 | 4.0 | 4.0 | 0.00 | 0.00 | 0.00 | 90 | 1022.4 |
| 20260831154122 | 75 | 151 | 3.0 | 3.0 | 0.00 | 0.00 | 0.00 | 91 | 1022.4 |
| 20260831153140 | 76 | 139 | 1.0 | 3.0 | 0.00 | 0.00 | 0.00 | 92 | 1021.7 |
| 20260831152552 | 75 | 145 | 3.0 | 4.0 | 0.00 | 0.00 | 0.00 | 94 | 1021.7 |
| 20260831151108 | 74 | 208 | 2.0 | 2.0 | 0.00 | 0.00 | 0.00 | 95 | 1022.4 |
| 20260831151054 | 73 | 133 | 0.0 | 2.0 | 0.00 | 0.00 | 0.00 | 96 | 1022.4 |
| 20260831145110 | 73 | 128 | 0.0 | 1.0 | 0.00 | 0.00 | 0.00 | 96 | 1022.8 |
| 20260831144106 | 73 | 154 | 0.0 | 2.0 | 0.00 | 0.00 | 0.00 | 96 | 1022.4 |
| 20260831143109 | 73 | 143 | 1.0 | 2.0 | 0.00 | 0.00 | 0.00 | 96 | 1022.4 |
| 20260831142548 | 73 | 147 | 0.0 | 2.0 | 0.00 | 0.00 | 0.00 | 97 | 1022.4 |
| 20260831141557 | 72 | 135 | 0.0 | 2.0 | 0.00 | 0.00 | 0.00 | 97 | 1022.4 |
| 20260831140111 | 72 | 135 | 0.0 | 2.0 | 0.00 | 0.00 | 0.00 | 97 | 1022.4 |
| 20260831135106 | 72 | 135 | 0.0 | 2.0 | 0.00 | 0.00 | 0.00 | 97 | 1022.4 |
| 20260831134110 | 71 | 141 | 0.0 | 2.0 | 0.00 | 0.00 | 0.00 | 97 | 1022.1 |
| 20260831133108 | 71 | 144 | 0.0 | 1.0 | 0.00 | 0.00 | 0.00 | 97 | 1022.4 |
| 20260831132107 | 70 | 151 | 1.0 | 2.0 | 0.00 | 0.00 | 0.00 | 97 | 1022.1 |
| 20260831131547 | 71 | 195 | 0.0 | 2.0 | 0.00 | 0.00 | 0.00 | 97 | 1022.4 |
| 20260831130551 | 71 | 142 | 1.0 | 3.0 | 0.00 | 0.00 | 0.00 | 97 | 1022.4 |
| 20260831125109 | 71 | 175 | 2.0 | 3.0 | 0.00 | 0.00 | 0.00 | 98 | 1022.4 |
| 20260831124108 | 71 | 353 | 2.0 | 4.0 | 0.00 | 0.00 | 0.00 | 98 | 1022.4 |
| 20260831123106 | 71 | 173 | 2.0 | 3.0 | 0.00 | 0.00 | 0.00 | 98 | 1022.1 |
| 20260831122109 | 71 | 57 | 0.0 | 3.0 | 0.00 | 0.00 | 0.00 | 98 | 1022.1 |
| 20260831121106 | 70 | 59 | 2.0 | 3.0 | 0.00 | 0.00 | 0.00 | 98 | 1022.1 |
| 20260831121041 | 70 | 152 | 3.0 | 3.0 | 0.00 | 0.00 | 0.00 | 98 | 1021.7 |
| 20260831115107 | 70 | 126 | 2.0 | 3.0 | 0.00 | 0.00 | 0.00 | 98 | 1022.1 |
| 20260831114542 | 70 | 151 | 2.0 | 3.0 | 0.00 | 0.00 | 0.00 | 98 | 1021.7 |
| 20260831113541 | 70 | 98 | 0.0 | 2.0 | 0.00 | 0.00 | 0.00 | 98 | 1021.7 |
| 20260831112107 | 70 | 142 | 0.0 | 3.0 | 0.00 | 0.00 | 0.00 | 98 | 1021.7 |
| 20260831111108 | 70 | 186 | 2.0 | 4.0 | 0.00 | 0.00 | 0.00 | 98 | 1021.4 |
| 20260831110108 | 70 | 179 | 1.0 | 3.0 | 0.00 | 0.00 | 0.00 | 98 | 1021.7 |
| 20260831105107 | 70 | 205 | 2.0 | 2.0 | 0.00 | 0.00 | 0.00 | 98 | 1021.4 |
| 20260831104107 | 70 | 145 | 2.0 | 3.0 | 0.00 | 0.00 | 0.00 | 98 | 1021.7 |
| 20260831103538 | 70 | 174 | 1.0 | 3.0 | 0.00 | 0.00 | 0.00 | 98 | 1021.7 |
| 20260831102109 | 70 | 156 | 1.0 | 3.0 | 0.00 | 0.00 | 0.00 | 98 | 1021.4 |
| 20260831101106 | 70 | 93 | 0.0 | 4.0 | 0.00 | 0.00 | 0.00 | 98 | 1021.4 |
| 20260831100612 | 70 | 208 | 2.0 | 4.0 | 0.00 | 0.00 | 0.00 | 98 | 1021.4 |
| 20260831095106 | 70 | 16 | 0.0 | 3.0 | 0.00 | 0.00 | 0.00 | 98 | 1021.1 |
| 20260831094109 | 69 | 160 | 1.0 | 4.0 | 0.00 | 0.00 | 0.00 | 98 | 1020.7 |
| 20260831093549 | 69 | 180 | 3.0 | 4.0 | 0.00 | 0.00 | 0.00 | 98 | 1020.7 |